Home   Weather   Rarotonga   Past weeks

Flag for Cook Islands Past Weather in Rarotonga, Cook Islands — Yesterday and Last 2 Weeks

Now
75 °F

Passing clouds.


Feels Like: 75 °F
Forecast: 73 / 84 °F
Wind: 2 mph from South

Location: Rarotonga

Current Time: Jan 22, 2017 at 12:37:05 am

Latest Report: Jan 21, 2017 at 11:00 pm


Visibility: N/A

Pressure: 29.74 "Hg

Humidity: 83%

Dew Point: 70 °F

Location of RarotongaLocation

Past Weather in Rarotonga — Graph

°F

Rarotonga Temperature Yesterday

Maximum temperature yesterday: 86 °F (at 11:00 am)
Minimum temperature yesterday: 75 °F (at 11:00 pm)
Average temperature yesterday: 81 °F

High & Low Weather Summary for the Past Weeks

 TemperatureHumidityPressure
High88 °F (Jan 7, 5:00 pm)100% (Jan 8, 4:00 am)29.95 "Hg (Jan 8, 4:00 am)
Low73 °F (Jan 10, 7:00 am)62% (Jan 20, 2:00 pm)29.53 "Hg (Jan 17, 3:00 pm)
Average81 °F83%29.77 "Hg
* Reported Jan 6 11:00 pm — Jan 21 11:00 pm, Rarotonga, Weather by CustomWeather, © 2017

Note: Actual official high and low records may vary slightly from our data, if they occured in-between our weather recording intervals... More about our weather records

Advertising

Rarotonga Weather History for the Previous 24 Hours

Scroll right to see more
 ConditionsComfort  
Time TempWeatherWind HumidityBarometerVisibility
11:00 pm
Sat, Jan 21
75 °FPassing clouds.2 mph83%29.74 "HgN/A
10:00 pm79 °FPassing clouds.3 mph74%29.77 "HgN/A
9:00 pm79 °FPassing clouds.7 mph74%29.74 "HgN/A
8:00 pm81 °FPassing clouds.3 mph70%29.74 "HgN/A
7:00 pm81 °FPassing clouds.7 mph70%29.71 "HgN/A
6:00 pm82 °FPassing clouds.8 mph66%29.71 "HgN/A
5:00 pm84 °FScattered clouds.9 mph66%29.68 "HgN/A
4:00 pm84 °FScattered clouds.12 mph66%29.71 "HgN/A
3:00 pm84 °FScattered clouds.6 mph70%29.71 "HgN/A
2:00 pm84 °FScattered clouds.8 mph66%29.74 "HgN/A
1:00 pm86 °FScattered clouds.7 mph66%29.74 "HgN/A
12:00 pm86 °FPassing clouds.5 mph62%29.74 "HgN/A
11:00 am86 °FPassing clouds.9 mph70%29.77 "HgN/A
10:00 am84 °FPassing clouds.6 mph70%29.74 "HgN/A
9:00 am82 °FPassing clouds.6 mph70%29.77 "HgN/A
8:00 am81 °FScattered clouds.5 mph74%29.77 "HgN/A
7:00 am81 °FPassing clouds.5 mph70%29.74 "HgN/A
6:00 am79 °FPassing clouds.8 mph79%29.71 "HgN/A
5:00 am77 °FPassing clouds.6 mph83%29.71 "HgN/A
4:00 am77 °FRain. Overcast.N/A83%29.71 "HgN/A
3:00 am79 °FPassing clouds.6 mph79%29.71 "HgN/A
2:00 am79 °FPassing clouds.7 mph79%29.74 "HgN/A
1:00 am77 °FPassing clouds.3 mph83%29.74 "HgN/A
12:00 am77 °FPassing clouds.3 mph83%29.77 "HgN/A
Weather by CustomWeather, © 2017

See weather overviewHow to use our weather pages